TimeCDT,TemperatureF,Dew PointF,Humidity,Sea Level PressureIn,VisibilityMPH,Wind Direction,Wind SpeedMPH,Gust SpeedMPH,PrecipitationIn,Events,Conditions,WindDirDegrees,DateUTC
12:15 AM,41.0,35.6,81,30.06,10.0,Calm,Calm,-,N/A,,Clear,0,2013-10-22 05:15:00
12:35 AM,41.0,35.6,81,30.06,10.0,NNW,3.5,-,N/A,,Clear,340,2013-10-22 05:35:00
12:55 AM,41.0,35.6,81,30.06,10.0,Calm,Calm,-,N/A,,Clear,0,2013-10-22 05:55:00
1:15 AM,37.4,33.8,87,30.06,10.0,WNW,3.5,-,N/A,,Clear,300,2013-10-22 06:15:00
1:35 AM,37.4,35.6,93,30.07,10.0,WNW,3.5,-,N/A,,Clear,300,2013-10-22 06:35:00
1:55 AM,35.6,33.8,93,30.07,10.0,Calm,Calm,-,N/A,,Clear,0,2013-10-22 06:55:00
2:15 AM,35.6,33.8,93,30.08,10.0,Calm,Calm,-,N/A,,Clear,0,2013-10-22 07:15:00
2:35 AM,35.6,33.8,93,30.07,10.0,Calm,Calm,-,N/A,,Clear,0,2013-10-22 07:35:00
2:55 AM,35.6,33.8,93,30.07,10.0,Calm,Calm,-,N/A,,Clear,0,2013-10-22 07:55:00
3:15 AM,35.6,33.8,93,30.07,10.0,WSW,3.5,-,N/A,,Clear,240,2013-10-22 08:15:00
3:35 AM,33.8,33.8,100,30.07,10.0,Calm,Calm,-,N/A,,Clear,0,2013-10-22 08:35:00
3:55 AM,35.6,33.8,93,30.06,10.0,Calm,Calm,-,N/A,,Clear,0,2013-10-22 08:55:00
4:15 AM,33.8,33.8,100,30.06,10.0,Calm,Calm,-,N/A,,Clear,0,2013-10-22 09:15:00
4:35 AM,33.8,33.8,100,30.07,10.0,Calm,Calm,-,N/A,,Clear,0,2013-10-22 09:35:00
4:55 AM,33.8,32.0,93,30.06,7.0,Calm,Calm,-,N/A,,Clear,0,2013-10-22 09:55:00
5:15 AM,33.8,33.8,100,30.06,5.0,Calm,Calm,-,N/A,,Clear,0,2013-10-22 10:15:00
5:35 AM,32.0,32.0,100,30.06,10.0,Calm,Calm,-,N/A,,Clear,0,2013-10-22 10:35:00
5:55 AM,33.8,32.0,93,30.06,10.0,Calm,Calm,-,N/A,,Clear,0,2013-10-22 10:55:00
6:15 AM,33.8,32.0,93,30.06,10.0,Calm,Calm,-,N/A,,Clear,0,2013-10-22 11:15:00
6:35 AM,32.0,32.0,100,30.06,10.0,Calm,Calm,-,N/A,,Clear,0,2013-10-22 11:35:00
6:55 AM,32.0,32.0,100,30.06,10.0,Calm,Calm,-,N/A,,Clear,0,2013-10-22 11:55:00
7:15 AM,32.0,32.0,100,30.06,10.0,Calm,Calm,-,N/A,,Clear,0,2013-10-22 12:15:00
7:35 AM,32.0,32.0,100,30.06,10.0,Calm,Calm,-,N/A,,Clear,0,2013-10-22 12:35:00
7:55 AM,33.8,33.8,100,30.06,10.0,Calm,Calm,-,N/A,,Clear,0,2013-10-22 12:55:00
8:15 AM,35.6,33.8,93,30.07,10.0,Calm,Calm,-,N/A,,Clear,0,2013-10-22 13:15:00
8:35 AM,37.4,35.6,93,30.07,10.0,Calm,Calm,-,N/A,,Clear,0,2013-10-22 13:35:00
8:55 AM,41.0,41.0,100,30.07,10.0,Calm,Calm,-,N/A,,Clear,0,2013-10-22 13:55:00
9:15 AM,46.4,37.4,71,30.06,10.0,South,4.6,-,N/A,,Clear,190,2013-10-22 14:15:00
9:35 AM,46.4,35.6,66,30.06,10.0,South,5.8,-,N/A,,Clear,190,2013-10-22 14:35:00
9:55 AM,50.0,35.6,58,30.04,10.0,South,6.9,-,N/A,,Clear,170,2013-10-22 14:55:00
10:15 AM,51.8,33.8,50,30.04,10.0,South,4.6,-,N/A,,Clear,180,2013-10-22 15:15:00
10:35 AM,53.6,32.0,44,30.03,10.0,SSW,6.9,-,N/A,,Scattered Clouds,200,2013-10-22 15:35:00
10:55 AM,55.4,32.0,41,30.03,10.0,South,3.5,-,N/A,,Clear,180,2013-10-22 15:55:00
11:15 AM,55.4,30.2,38,30.02,10.0,SSE,5.8,-,N/A,,Clear,160,2013-10-22 16:15:00
11:35 AM,55.4,32.0,41,30.02,10.0,SW,6.9,-,N/A,,Clear,220,2013-10-22 16:35:00
11:55 AM,53.6,30.2,41,30.01,10.0,SSW,9.2,-,N/A,,Clear,200,2013-10-22 16:55:00
12:15 PM,55.4,32.0,41,30.00,10.0,South,9.2,-,N/A,,Clear,180,2013-10-22 17:15:00
12:35 PM,53.6,32.0,44,29.99,10.0,South,6.9,-,N/A,,Scattered Clouds,180,2013-10-22 17:35:00
12:55 PM,53.6,32.0,44,29.98,10.0,SSW,10.4,-,N/A,,Overcast,200,2013-10-22 17:55:00
1:15 PM,55.4,32.0,41,29.96,10.0,SSW,8.1,-,N/A,,Mostly Cloudy,200,2013-10-22 18:15:00
1:35 PM,55.4,32.0,41,29.95,10.0,SSW,10.4,-,N/A,,Scattered Clouds,200,2013-10-22 18:35:00
1:55 PM,55.4,32.0,41,29.93,10.0,South,11.5,-,N/A,,Scattered Clouds,170,2013-10-22 18:55:00
2:15 PM,55.4,32.0,41,29.92,10.0,South,9.2,-,N/A,,Scattered Clouds,190,2013-10-22 19:15:00
2:35 PM,59.0,32.0,36,29.92,10.0,SW,10.4,-,N/A,,Mostly Cloudy,220,2013-10-22 19:35:00
2:55 PM,57.2,32.0,38,29.90,10.0,South,13.8,17.3,N/A,,Mostly Cloudy,190,2013-10-22 19:55:00
3:15 PM,55.4,32.0,41,29.89,10.0,South,9.2,-,N/A,,Overcast,180,2013-10-22 20:15:00
3:35 PM,55.4,32.0,41,29.88,10.0,SSW,12.7,-,N/A,,Overcast,200,2013-10-22 20:35:00
3:55 PM,55.4,32.0,41,29.87,10.0,South,11.5,16.1,N/A,,Overcast,170,2013-10-22 20:55:00
4:15 PM,55.4,32.0,41,29.86,10.0,SSE,9.2,-,N/A,,Overcast,160,2013-10-22 21:15:00
4:35 PM,55.4,32.0,41,29.85,10.0,South,10.4,-,N/A,,Overcast,190,2013-10-22 21:35:00
4:55 PM,55.4,33.8,44,29.85,10.0,South,6.9,-,N/A,,Overcast,180,2013-10-22 21:55:00
5:15 PM,55.4,33.8,44,29.84,10.0,South,11.5,-,N/A,,Mostly Cloudy,180,2013-10-22 22:15:00
5:35 PM,53.6,35.6,51,29.84,10.0,South,6.9,-,N/A,Rain,Light Rain,190,2013-10-22 22:35:00
5:55 PM,53.6,37.4,54,29.84,10.0,SSW,6.9,-,N/A,,Overcast,200,2013-10-22 22:55:00
6:15 PM,51.8,35.6,54,29.84,10.0,South,8.1,-,N/A,,Scattered Clouds,190,2013-10-22 23:15:00
6:35 PM,51.8,35.6,54,29.84,10.0,South,5.8,-,N/A,,Clear,190,2013-10-22 23:35:00
6:55 PM,51.8,35.6,54,29.84,10.0,South,5.8,-,N/A,,Scattered Clouds,190,2013-10-22 23:55:00
7:15 PM,50.0,37.4,62,29.83,10.0,South,5.8,-,N/A,,Mostly Cloudy,180,2013-10-23 00:15:00
7:35 PM,50.0,37.4,62,29.83,10.0,South,5.8,-,N/A,,Overcast,180,2013-10-23 00:35:00
7:55 PM,51.8,37.4,58,29.83,10.0,SSW,6.9,-,N/A,,Overcast,200,2013-10-23 00:55:00
8:15 PM,50.0,41.0,71,29.84,10.0,SW,6.9,-,N/A,Rain,Light Rain,220,2013-10-23 01:15:00
9:15 PM,50.0,44.6,82,29.83,10.0,WSW,8.1,-,N/A,,Overcast,250,2013-10-23 02:15:00
9:35 PM,48.2,42.8,82,29.83,10.0,West,5.8,-,N/A,,Scattered Clouds,260,2013-10-23 02:35:00
10:15 PM,46.4,44.6,93,29.84,10.0,West,9.2,-,N/A,,Scattered Clouds,270,2013-10-23 03:15:00
10:35 PM,48.2,44.6,87,29.84,10.0,West,9.2,16.1,N/A,,Mostly Cloudy,270,2013-10-23 03:35:00
10:55 PM,48.2,44.6,87,29.84,10.0,West,13.8,18.4,N/A,,Overcast,280,2013-10-23 03:55:00
11:15 PM,46.4,42.8,87,29.83,10.0,West,15.0,-,N/A,,Overcast,280,2013-10-23 04:15:00
11:35 PM,46.4,42.8,87,29.84,10.0,WNW,19.6,26.5,N/A,,Overcast,290,2013-10-23 04:35:00
11:55 PM,46.4,42.8,87,29.84,10.0,WNW,17.3,26.5,N/A,,Overcast,290,2013-10-23 04:55:00